Wind_Speed
8 8 8 8 5 3 6 8 8 16 17 15 12 12 10 8 6 6 5 4 3 6 14 19 24 31 34 33 30 29 29 31 31 29 30 28 29 29 25 25 24 24 25 25
1 5 4 5 7 6 4 5 10 13 15 13 16 15 12 9 7 5 4 4 5 4 4 7 15 19 26 29 32 31 28 29 30 32 32 33 31 30 32 31 29 28 29 29
7 4 4 11 14 12 11 10 10 11 11 16 15 14 12 11 10 9 8 8 8 8 8 10 8 10 16 22 26 30 30 32 34 35 36 36 35 33 33 34 33 34 33 32
5 7 7 5 12 13 12 11 12 13 18 16 17 15 15 14 13 12 11 10 10 10 10 11 12 11 11 12 17 22 28 28 32 34 30 32 34 34 33 31 35 35 34 34
6 14 1 6 9 9 15 11 12 13 19 19 18 16 18 19 19 18 17 17 16 14 13 13 14 14 14 15 14 14 27 30 30 32 32 34 32 38 37 38 36 34 33 34
8 8 6 6 14 18 17 12 16 15 17 17 15 7 18 20 20 21 22 22 22 21 21 20 19 17 18 18 18 16 17 22 33 35 37 39 36 32 32 38 40 40 39 36
11 9 7 9 12 17 12 8 14 19 17 16 14 20 21 23 23 25 25 26 26 26 27 27 26 24 23 22 23 23 21 21 22 26 41 45 33 32 30 31 36 41 42 39
11 10 11 12 13 13 15 11 12 11 12 15 17 19 21 23 23 25 29 31 33 32 32 32 32 32 31 28 28 27 24 25 24 23 22 30 36 39 37 33 33 36 41 41
9 6 13 9 18 22 18 16 16 16 17 18 19 21 23 24 24 24 27 31 33 34 35 35 38 39 36 36 34 32 30 31 28 27 27 25 26 35 37 36 33 38 43 44
10 10 14 12 11 14 15 17 17 16 13 11 11 12 13 16 18 21 22 23 28 33 39 40 40 41 44 42 40 41 37 33 30 33 30 29 28 28 27 30 39 40 49 43
16 15 12 16 16 16 14 13 13 15 15 15 14 15 14 17 18 21 23 23 25 29 34 39 43 47 47 47 47 46 45 43 40 34 37 33 30 28 26 26 30 34 33 42
10 9 13 14 13 13 13 13 13 14 14 13 13 15 15 17 18 19 20 22 24 26 30 33 38 44 48 52 52 52 50 50 48 46 41 41 40 37 32 29 29 28 37 49
11 14 15 17 17 14 14 16 16 14 13 14 14 15 15 17 18 20 21 23 25 25 26 28 32 36 40 46 52 55 57 55 55 54 51 49 46 43 41 38 34 31 28 30
23 20 18 17 18 19 19 17 15 13 13 13 13 12 13 15 17 20 21 23 25 27 28 28 29 32 35 38 43 48 55 56 55 57 58 58 56 53 50 47 43 37 36 34
19 22 23 19 21 19 18 15 13 11 11 12 12 10 10 11 15 20 21 23 26 27 28 29 30 30 33 36 36 39 44 54 59 58 58 62 60 59 57 52 49 48 47 43
21 21 25 26 23 19 16 14 11 9 10 10 9 9 10 12 16 20 23 25 26 28 29 28 29 29 28 32 38 39 38 39 50 59 59 59 63 63 61 58 54 50 42 48
18 22 21 28 23 16 14 13 11 9 9 9 8 9 11 14 16 19 21 23 25 27 28 27 28 28 26 29 34 37 39 40 39 48 57 57 60 63 64 64 62 59 54 48
8 11 13 20 20 15 15 14 13 12 13 11 10 11 11 13 16 19 20 22 23 25 26 27 27 29 29 29 33 35 36 37 39 38 46 52 54 59 62 64 66 65 60 57
5 7 8 9 13 16 17 17 17 15 15 14 12 11 11 14 17 19 19 20 21 21 24 26 26 26 28 29 33 34 34 36 38 39 41 47 49 53 58 60 61 66 69 66
7 8 11 17 19 21 23 20 18 18 18 17 14 13 13 15 17 16 16 17 17 21 26 27 30 28 33 32 32 31 31 32 35 38 40 42 44 48 52 57 58 60 63 66
10 13 14 15 19 22 22 18 18 21 22 20 17 15 15 14 14 13 13 13 17 20 22 24 26 30 35 36 35 31 27 28 28 32 37 41 41 40 43 49 53 55 57 61
19 20 21 22 26 27 25 23 26 24 27 26 19 16 15 13 11 12 13 13 17 20 23 21 24 30 34 36 38 32 29 27 25 25 29 34 39 40 38 37 45 49 51 54
20 25 26 28 27 30 28 34 33 31 28 25 21 16 14 12 9 8 8 16 16 18 21 19 24 27 32 33 35 34 30 28 25 22 23 27 31 37 36 36 38 43 45 46
22 25 27 31 27 22 23 22 24 32 24 27 25 20 13 11 9 10 12 16 17 17 18 20 24 26 26 28 35 35 31 28 25 23 21 23 29 33 38 41 42 35 38 36
12 15 15 14 17 19 11 13 12 18 21 20 25 19 10 9 9 12 11 12 16 16 16 21 23 24 22 22 30 35 36 28 23 20 18 18 21 23 31 43 36 39 38 33
12 12 12 11 12 9 9 8 8 14 23 26 18 10 7 7 8 11 9 11 11 13 12 17 21 22 23 19 22 29 33 31 23 16 13 12 8 6 9 9 16 19 33 34
13 11 10 9 5 4 5 9 3 7 17 13 8 6 6 6 7 5 9 7 8 11 13 14 14 21 22 17 18 20 25 22 26 19 11 8 5 2 3 7 9 11 13 18
Wind_Direction
91 101 120 159 158 128 183 219 227 162 152 158 160 183 182 173 157 144 148 152 167 198 222 224 223 219 216 213 216 221 230 229 233 240 231 238 226 236 235 239 241 242 239 239
161 242 251 240 233 213 175 147 138 153 154 169 177 182 187 194 201 208 215 220 231 245 258 238 231 234 224 225 216 214 224 226 226 230 237 237 234 234 251 240 240 242 242 243
220 233 257 253 230 216 204 183 185 180 188 185 188 191 191 197 207 216 224 231 238 243 248 266 265 256 246 241 236 224 221 221 224 230 234 236 240 241 249 247 249 246 245 244
195 176 218 201 217 186 189 192 181 184 202 199 207 215 226 227 227 231 235 239 240 244 245 246 258 263 267 269 249 232 224 220 221 224 229 237 236 240 248 251 251 249 249 250
202 213 254 233 214 182 175 190 178 187 205 215 221 230 240 244 248 248 244 246 246 246 248 247 244 249 252 257 264 264 234 227 220 220 228 245 237 232 237 245 250 250 252 251
201 229 224 143 218 205 189 204 215 199 205 208 205 200 231 244 246 252 254 252 247 247 247 251 250 251 249 253 255 257 263 249 234 230 230 235 232 228 231 234 241 247 249 251
216 224 240 217 224 198 196 192 215 220 224 226 217 205 234 247 253 255 258 261 263 258 249 248 250 250 250 248 249 251 253 260 261 246 238 236 244 244 235 238 242 242 245 246
210 223 234 234 202 187 214 209 207 209 231 237 242 241 244 250 257 262 265 267 267 266 267 265 254 250 250 251 252 250 248 248 254 261 259 244 236 240 241 238 242 245 242 240
201 214 234 243 211 219 222 230 237 248 254 259 263 264 265 264 266 266 266 267 269 271 269 265 266 265 253 250 250 252 253 250 249 253 258 258 254 244 244 242 243 254 249 241
238 242 244 227 222 230 243 251 256 257 258 264 277 281 279 274 270 266 267 272 274 274 272 268 265 262 264 258 251 249 249 253 251 247 249 252 253 253 249 246 245 245 246 241
245 247 249 247 247 246 244 243 254 258 262 264 266 269 269 269 270 273 273 277 283 282 278 275 269 264 261 260 259 253 248 246 251 250 244 242 242 245 248 247 243 240 242 245
250 253 246 250 244 260 253 255 259 259 262 266 267 272 276 278 278 279 281 284 293 299 293 283 279 274 265 258 257 256 254 249 246 246 246 244 243 243 246 245 249 256 251 242
242 249 246 252 255 256 256 257 257 256 260 268 274 275 279 279 282 286 290 292 295 305 305 295 284 283 278 269 259 257 257 256 251 246 244 247 245 244 241 239 240 242 244 246
251 246 247 247 251 247 247 251 254 258 265 274 278 284 287 289 293 294 300 299 300 296 298 303 300 291 284 279 268 259 255 255 254 252 248 246 247 249 248 245 238 234 238 240
247 256 242 245 240 245 248 254 258 266 279 289 292 293 292 294 298 300 301 302 302 301 297 296 302 304 294 285 278 268 261 255 256 254 253 250 247 246 247 247 246 242 237 241
248 252 246 232 236 244 248 248 254 265 284 279 278 288 297 300 303 306 308 305 302 299 300 295 297 303 303 296 284 276 272 265 255 256 254 251 251 249 245 245 244 244 244 238
247 250 250 223 220 239 241 245 245 258 281 273 283 295 294 295 304 310 312 312 310 305 301 298 297 303 306 300 295 285 276 273 267 253 253 252 250 250 250 247 245 245 245 245
249 254 235 219 202 208 232 242 249 258 269 262 271 285 284 294 307 309 309 312 312 311 309 306 301 301 305 303 297 290 282 275 267 264 252 250 250 249 248 249 247 246 244 244
295 255 234 220 212 219 234 241 247 257 261 262 266 275 287 297 307 312 310 311 313 318 321 317 309 307 309 310 305 295 284 275 266 259 256 253 252 248 247 248 247 247 247 247
286 264 245 239 236 251 243 242 244 253 252 255 259 265 281 296 310 309 314 323 326 324 324 324 318 319 326 321 315 302 289 281 268 260 253 248 252 252 246 244 244 244 244 246
279 269 269 269 264 259 276 247 248 251 244 255 252 257 267 291 309 303 307 327 319 321 328 327 322 319 329 328 327 318 303 297 281 263 257 252 248 250 248 244 243 242 243 243
274 274 270 279 275 270 265 258 252 252 250 252 242 249 260 282 296 299 305 307 316 320 328 323 321 328 337 338 336 328 321 315 301 278 262 254 250 245 244 245 242 242 241 240
273 275 271 273 279 270 271 256 259 250 245 243 234 238 251 274 284 272 284 300 318 316 328 321 321 329 335 343 346 343 336 332 323 302 274 262 251 238 240 244 243 242 242 240
290 281 273 274 274 278 274 258 235 226 225 252 223 225 232 263 279 280 283 301 306 316 328 327 330 333 336 343 348 353 354 340 336 325 304 272 249 244 240 244 236 233 231 230
331 323 308 299 276 269 270 264 236 225 229 244 213 221 218 257 251 260 277 279 296 311 320 326 336 340 339 331 341 347 353 0 345 339 329 309 278 260 247 251 232 229 231 224
343 338 339 321 293 292 280 267 277 254 220 199 187 186 219 238 267 290 298 283 302 308 324 314 329 331 331 327 331 337 347 356 9 349 349 338 323 280 227 219 223 218 213 216
354 1 355 354 18 350 232 179 141 204 179 183 167 180 228 261 279 278 265 264 289 295 308 322 327 324 326 332 336 332 347 346 4 21 9 20 358 6 123 129 146 151 148 150
Height
3125 3127 3131 3134 3136 3138 3141 3142 3144 3145 3151 3155 3155 3157 3159 3161 3162 3164 3166 3167 3168 3169 3171 3174 3177 3179 3183 3186 3190 3194 3198 3203 3207 3210 3212 3215 3217 3218 3221 3222 3225 3227 3228 3230
3127 3128 3130 3133 3135 3136 3139 3141 3144 3148 3149 3150 3152 3155 3157 3159 3161 3162 3164 3165 3167 3168 3168 3170 3172 3174 3177 3181 3184 3187 3192 3196 3199 3203 3206 3208 3211 3213 3215 3217 3219 3220 3223 3225
3126 3127 3129 3131 3132 3134 3138 3140 3144 3147 3147 3147 3150 3152 3155 3157 3158 3160 3161 3163 3164 3165 3166 3168 3169 3170 3172 3175 3179 3182 3184 3188 3191 3195 3198 3201 3204 3206 3208 3211 3213 3214 3216 3218
3124 3128 3128 3125 3125 3129 3135 3136 3139 3140 3142 3145 3147 3149 3151 3153 3155 3157 3159 3160 3162 3163 3164 3165 3166 3167 3169 3170 3172 3175 3177 3180 3183 3186 3189 3193 3195 3197 3201 3203 3205 3207 3209 3212
3122 3123 3124 3124 3123 3127 3130 3133 3133 3136 3138 3140 3143 3146 3147 3148 3149 3152 3155 3157 3159 3160 3161 3162 3163 3164 3166 3166 3167 3168 3170 3173 3175 3177 3181 3185 3186 3188 3191 3194 3196 3199 3201 3204
3122 3120 3119 3120 3119 3122 3125 3130 3129 3131 3133 3136 3140 3147 3143 3143 3145 3146 3147 3150 3153 3155 3157 3158 3159 3160 3162 3162 3163 3164 3164 3166 3168 3169 3172 3176 3179 3179 3181 3184 3186 3189 3192 3195
3118 3119 3119 3117 3117 3121 3127 3127 3124 3127 3130 3132 3136 3138 3135 3138 3139 3140 3141 3142 3144 3147 3149 3151 3153 3155 3156 3157 3158 3159 3159 3160 3160 3162 3165 3167 3167 3173 3174 3175 3177 3180 3182 3186
3117 3118 3117 3114 3115 3122 3119 3120 3121 3123 3126 3128 3129 3131 3132 3134 3134 3135 3135 3136 3137 3140 3141 3142 3144 3146 3148 3150 3151 3153 3153 3153 3154 3155 3156 3159 3161 3165 3166 3166 3168 3171 3173 3176
3114 3114 3110 3110 3111 3112 3115 3116 3118 3120 3121 3122 3123 3125 3126 3127 3128 3129 3130 3130 3130 3130 3132 3135 3135 3135 3139 3141 3143 3144 3146 3147 3147 3148 3149 3149 3152 3154 3155 3157 3158 3163 3165 3167
3107 3108 3106 3106 3107 3110 3111 3112 3113 3115 3115 3117 3118 3119 3120 3120 3120 3121 3121 3122 3122 3121 3121 3123 3125 3126 3126 3129 3132 3134 3137 3138 3139 3140 3141 3141 3142 3142 3144 3144 3147 3149 3154 3157
3102 3103 3103 3103 3104 3105 3108 3109 3110 3111 3112 3113 3114 3113 3114 3114 3115 3114 3114 3114 3113 3112 3111 3111 3112 3114 3115 3116 3117 3121 3125 3127 3129 3131 3131 3133 3133 3134 3135 3136 3138 3140 3142 3145
3101 3100 3100 3100 3100 3101 3103 3104 3105 3106 3107 3107 3108 3107 3107 3107 3107 3107 3107 3106 3105 3102 3101 3100 3099 3098 3101 3103 3104 3105 3108 3114 3116 3118 3121 3122 3124 3125 3126 3128 3128 3129 3129 3130
3095 3094 3095 3095 3096 3097 3098 3099 3101 3102 3101 3101 3101 3101 3101 3100 3099 3098 3098 3097 3095 3093 3091 3090 3089 3087 3086 3087 3090 3091 3093 3097 3101 3105 3107 3110 3112 3114 3116 3119 3119 3122 3122 3122
3088 3089 3091 3092 3092 3093 3094 3094 3095 3095 3095 3095 3095 3095 3094 3093 3092 3091 3090 3088 3088 3086 3084 3082 3079 3078 3075 3073 3074 3076 3078 3081 3084 3088 3092 3095 3098 3100 3103 3106 3109 3111 3114 3116
3081 3081 3084 3085 3085 3086 3088 3089 3089 3089 3089 3089 3088 3088 3088 3088 3086 3084 3084 3082 3080 3078 3077 3075 3072 3069 3066 3063 3061 3061 3063 3065 3067 3070 3075 3078 3081 3085 3089 3092 3095 3099 3102 3106
3072 3073 3074 3078 3079 3080 3082 3084 3084 3085 3085 3084 3085 3084 3083 3083 3082 3079 3077 3075 3073 3071 3069 3067 3065 3062 3058 3054 3051 3049 3048 3050 3051 3052 3056 3060 3063 3068 3072 3076 3080 3084 3088 3093
3063 3064 3066 3069 3072 3076 3078 3080 3081 3081 3082 3081 3081 3081 3080 3079 3077 3075 3073 3070 3066 3063 3061 3059 3056 3054 3051 3046 3041 3038 3035 3035 3035 3035 3037 3041 3045 3049 3054 3058 3063 3068 3074 3078
3059 3060 3061 3063 3066 3069 3074 3076 3076 3077 3077 3077 3076 3076 3075 3074 3073 3071 3069 3065 3061 3058 3055 3052 3049 3046 3043 3038 3033 3027 3024 3021 3021 3021 3021 3023 3027 3032 3035 3040 3045 3050 3056 3061
3060 3061 3062 3063 3066 3068 3070 3071 3071 3071 3071 3071 3071 3071 3070 3069 3068 3065 3063 3060 3056 3053 3050 3046 3042 3038 3034 3029 3022 3016 3011 3008 3006 3006 3006 3007 3009 3012 3016 3021 3026 3032 3037 3043
3060 3060 3061 3062 3062 3062 3063 3064 3064 3065 3065 3065 3065 3065 3065 3064 3062 3060 3057 3055 3053 3050 3046 3041 3036 3031 3025 3020 3013 3006 3000 2996 2992 2991 2990 2991 2993 2995 2998 3003 3008 3013 3018 3025
3057 3057 3056 3056 3056 3055 3055 3055 3056 3057 3058 3058 3059 3060 3060 3059 3058 3055 3054 3052 3050 3046 3042 3037 3031 3027 3019 3011 3003 2996 2990 2985 2980 2978 2976 2977 2979 2980 2983 2986 2990 2995 3001 3007
3051 3050 3049 3049 3048 3047 3047 3048 3048 3049 3050 3051 3052 3053 3054 3054 3053 3051 3049 3048 3045 3041 3037 3033 3028 3022 3015 3006 2997 2988 2981 2975 2970 2966 2964 2964 2965 2968 2970 2972 2976 2979 2984 2990
3044 3042 3040 3039 3038 3037 3037 3037 3037 3038 3041 3043 3044 3046 3048 3049 3048 3048 3047 3044 3041 3037 3034 3029 3023 3018 3012 3003 2995 2985 2976 2969 2962 2958 2955 2954 2954 2956 2959 2961 2963 2966 2971 2975
3036 3033 3031 3029 3029 3027 3025 3024 3025 3026 3033 3036 3037 3040 3042 3044 3043 3042 3041 3038 3035 3033 3030 3024 3019 3014 3008 3001 2994 2986 2976 2967 2960 2954 2948 2946 2946 2947 2948 2949 2951 2954 2958 2962
3030 3028 3024 3022 3021 3020 3019 3019 3020 3021 3026 3028 3030 3034 3037 3038 3039 3038 3037 3035 3031 3029 3026 3020 3016 3011 3006 3000 2994 2986 2978 2969 2960 2953 2947 2942 2939 2937 2937 2939 2939 2943 2946 2949
3028 3024 3021 3018 3016 3016 3016 3017 3016 3016 3019 3022 3026 3031 3033 3034 3034 3032 3031 3030 3029 3027 3024 3020 3015 3010 3004 2999 2994 2986 2979 2970 2963 2955 2949 2944 2939 2936 2932 2929 2933 2932 2936 2940
3025 3023 3021 3017 3015 3014 3014 3013 3016 3017 3019 3023 3025 3029 3030 3030 3030 3029 3027 3027 3026 3024 3021 3018 3014 3009 3003 2996 2991 2986 2980 2973 2965 2959 2952 2948 2944 2940 2936 2933 2933 2931 2930 2931